KLM35D LEPA-LFBZ

Flight info

Callsign KLM35D
Flight time 1h 1m
Altitude 32000
Route DRAGO N863 REBUL/N0450F350 M601 PPN M299 DONOS
Aircraft A21N/M-SDE2E3FGHIRWXY/LB1

Departure

Time 2026-04-22 15:30
Airport Palma de Mallorca Airport (LEPA)

Arrival

Time 2026-04-22 16:31
Airport Biarritz Pays Basque airport (LFBZ)
Time Latitude Longitude Altitude Speed Heading
2026-04-22 15:03 39.55087 2.73628 37 ft 0 kts 191°
2026-04-22 15:15 39.55092 2.73629 36 ft 2 kts 191°
2026-04-22 15:15 39.55109 2.73633 34 ft 2 kts 191°
2026-04-22 15:15 39.55125 2.73635 34 ft 2 kts 178°
2026-04-22 15:16 39.55141 2.73630 34 ft 2 kts 133°
2026-04-22 15:16 39.55148 2.73610 34 ft 2 kts 74°
2026-04-22 15:16 39.55148 2.73609 34 ft 0 kts 69°
2026-04-22 15:21 39.55149 2.73615 33 ft 2 kts 69°
2026-04-22 15:21 39.55170 2.73637 35 ft 5 kts
2026-04-22 15:21 39.55211 2.73613 36 ft 8 kts 330°
2026-04-22 15:22 39.55270 2.73565 36 ft 12 kts 325°
2026-04-22 15:22 39.55349 2.73499 36 ft 15 kts 329°
2026-04-22 15:22 39.55413 2.73454 34 ft 16 kts 342°
2026-04-22 15:22 39.55470 2.73468 37 ft 5 kts 69°
2026-04-22 15:23 39.55494 2.73542 37 ft 12 kts 54°
2026-04-22 15:23 39.55580 2.73536 37 ft 15 kts 327°
2026-04-22 15:23 39.55641 2.73498 36 ft 7 kts 358°
2026-04-22 15:23 39.55669 2.73533 37 ft 5 kts 63°
2026-04-22 15:24 39.55687 2.73575 37 ft 5 kts 59°
2026-04-22 15:24 39.55714 2.73629 38 ft 9 kts 57°
2026-04-22 15:24 39.55753 2.73709 38 ft 12 kts 58°
2026-04-22 15:24 39.55786 2.73777 39 ft 14 kts 58°
2026-04-22 15:25 39.55857 2.73927 40 ft 15 kts 58°
2026-04-22 15:25 39.55910 2.74040 40 ft 15 kts 59°
2026-04-22 15:25 39.55945 2.74113 40 ft 14 kts 58°
2026-04-22 15:25 39.56003 2.74215 41 ft 14 kts 45°
2026-04-22 15:26 39.56075 2.74287 42 ft 13 kts 34°
2026-04-22 15:26 39.56103 2.74311 42 ft 0 kts 34°
2026-04-22 15:27 39.56110 2.74318 42 ft 4 kts 34°
2026-04-22 15:28 39.56150 2.74353 43 ft 10 kts 32°
2026-04-22 15:28 39.56209 2.74362 43 ft 11 kts 337°
2026-04-22 15:28 39.56234 2.74267 42 ft 10 kts 245°
2026-04-22 15:28 39.56209 2.74219 42 ft 0 kts 238°
2026-04-22 15:29 39.56192 2.74184 41 ft 20 kts 238°
2026-04-22 15:29 39.55994 2.73769 38 ft 92 kts 238°
2026-04-22 15:30 39.54868 2.71424 642 ft 182 kts 237°
2026-04-22 15:30 39.54134 2.70077 1294 ft 186 kts 233°
2026-04-22 15:30 39.53359 2.68719 1920 ft 189 kts 239°
2026-04-22 15:30 39.52625 2.67196 2184 ft 208 kts 240°
2026-04-22 15:31 39.51853 2.65568 2511 ft 223 kts 238°
2026-04-22 15:31 39.51005 2.63831 3003 ft 230 kts 238°
2026-04-22 15:31 39.50139 2.62091 3664 ft 231 kts 238°
2026-04-22 15:31 39.49262 2.60347 4306 ft 231 kts 238°
2026-04-22 15:32 39.48383 2.58605 4949 ft 231 kts 238°
2026-04-22 15:32 39.47496 2.56855 5519 ft 235 kts 238°
2026-04-22 15:32 39.46591 2.55072 6072 ft 239 kts 237°
2026-04-22 15:32 39.45692 2.53278 6598 ft 242 kts 240°
2026-04-22 15:33 39.45082 2.51223 6968 ft 253 kts 264°
2026-04-22 15:33 39.45353 2.48945 7164 ft 268 kts 298°
2026-04-22 15:33 39.46610 2.47120 7729 ft 277 kts 321°
2026-04-22 15:33 39.48169 2.45657 8622 ft 277 kts 324°
2026-04-22 15:34 39.49764 2.44243 9595 ft 278 kts 324°
2026-04-22 15:34 39.51370 2.42812 10424 ft 285 kts 323°
2026-04-22 15:34 39.53056 2.41292 10808 ft 307 kts 323°
2026-04-22 15:34 39.54830 2.39585 11154 ft 328 kts 317°
2026-04-22 15:35 39.56501 2.37497 11808 ft 337 kts 313°
2026-04-22 15:35 39.58107 2.35326 12681 ft 340 kts 312°
2026-04-22 15:35 39.59735 2.33097 13580 ft 342 kts 312°
2026-04-22 15:35 39.61377 2.30847 14366 ft 345 kts 312°
2026-04-22 15:36 39.63037 2.28573 15044 ft 351 kts 312°
2026-04-22 15:36 39.64733 2.26253 15675 ft 357 kts 311°
2026-04-22 15:36 39.66448 2.23904 16359 ft 362 kts 312°
2026-04-22 15:36 39.68194 2.21514 17051 ft 366 kts 312°
2026-04-22 15:37 39.69953 2.19106 17721 ft 371 kts 312°
2026-04-22 15:37 39.71739 2.16657 18371 ft 375 kts 312°
2026-04-22 15:37 39.73515 2.14221 18947 ft 378 kts 312°
2026-04-22 15:37 39.75331 2.11729 19565 ft 381 kts 312°
2026-04-22 15:38 39.77156 2.09222 20173 ft 383 kts 312°
2026-04-22 15:38 39.80840 2.04156 21359 ft 388 kts 312°
2026-04-22 15:38 39.82699 2.01596 21928 ft 391 kts 312°
2026-04-22 15:39 39.84570 1.99017 22489 ft 393 kts 312°
2026-04-22 15:39 39.86455 1.96416 23038 ft 396 kts 312°
2026-04-22 15:39 39.88326 1.93833 23589 ft 399 kts 312°
2026-04-22 15:39 39.90237 1.91192 24019 ft 402 kts 312°
2026-04-22 15:40 39.92161 1.88529 24415 ft 406 kts 312°
2026-04-22 15:40 39.94101 1.85844 24819 ft 409 kts 312°
2026-04-22 15:40 39.96055 1.83136 25227 ft 411 kts 312°
2026-04-22 15:40 39.98029 1.80418 25622 ft 414 kts 313°
2026-04-22 15:41 40.00173 1.77889 25998 ft 418 kts 321°
2026-04-22 15:41 40.02626 1.75810 26366 ft 423 kts 330°
2026-04-22 15:41 40.05258 1.74164 26754 ft 427 kts 334°
2026-04-22 15:41 40.08044 1.72644 27118 ft 430 kts 336°
2026-04-22 15:42 40.10802 1.71248 27457 ft 433 kts 337°
2026-04-22 15:42 40.13630 1.69854 27796 ft 435 kts 337°
2026-04-22 15:42 40.16471 1.68454 28129 ft 438 kts 337°
2026-04-22 15:42 40.19320 1.67033 28449 ft 440 kts 336°
2026-04-22 15:43 40.22181 1.65588 28815 ft 441 kts 336°
2026-04-22 15:43 40.25036 1.64132 29296 ft 439 kts 336°
2026-04-22 15:43 40.27867 1.62678 29793 ft 437 kts 336°
2026-04-22 15:43 40.30688 1.61223 30197 ft 435 kts 336°
2026-04-22 15:44 40.33501 1.59769 30548 ft 434 kts 336°
2026-04-22 15:44 40.36269 1.58337 30915 ft 433 kts 336°
2026-04-22 15:44 40.39067 1.56887 31272 ft 432 kts 336°
2026-04-22 15:44 40.41858 1.55442 31620 ft 431 kts 336°
2026-04-22 15:45 40.44641 1.53999 31914 ft 431 kts 336°
2026-04-22 15:45 40.47433 1.52550 31985 ft 431 kts 336°
2026-04-22 15:45 40.53004 1.49656 31993 ft 430 kts 336°
2026-04-22 15:46 40.58533 1.46780 31996 ft 430 kts 336°
2026-04-22 15:46 40.64094 1.43882 31996 ft 430 kts 336°
2026-04-22 15:47 40.69657 1.40977 32001 ft 430 kts 336°
2026-04-22 15:47 40.75209 1.38074 32001 ft 430 kts 336°
2026-04-22 15:48 40.80769 1.35160 32001 ft 430 kts 336°
2026-04-22 15:48 40.86326 1.32243 31993 ft 428 kts 336°
2026-04-22 15:49 40.91848 1.29339 31989 ft 430 kts 336°
2026-04-22 15:49 40.97393 1.26418 31981 ft 429 kts 336°
2026-04-22 15:50 41.02931 1.23495 31970 ft 428 kts 336°
2026-04-22 15:50 41.08471 1.20566 31966 ft 428 kts 336°
2026-04-22 15:51 41.14054 1.17822 31971 ft 430 kts 343°
2026-04-22 15:51 41.19935 1.16596 31966 ft 432 kts 352°
2026-04-22 15:52 41.25927 1.15901 31967 ft 432 kts 353°
2026-04-22 15:52 41.31934 1.15307 31972 ft 433 kts 353°
2026-04-22 15:53 41.37929 1.14706 31976 ft 432 kts 353°
2026-04-22 15:53 41.43878 1.14090 31971 ft 430 kts 353°
2026-04-22 15:54 41.49841 1.13463 31975 ft 429 kts 353°
2026-04-22 15:54 41.55791 1.12834 31967 ft 429 kts 353°
2026-04-22 15:55 41.61718 1.12025 31957 ft 427 kts 347°
2026-04-22 15:55 41.67229 1.09440 31954 ft 422 kts 329°
2026-04-22 15:56 41.71807 1.04599 31941 ft 421 kts 311°
2026-04-22 15:56 41.75019 0.98060 31941 ft 422 kts 299°
2026-04-22 15:57 41.77722 0.91070 31951 ft 423 kts 297°
2026-04-22 15:57 41.80348 0.84033 31951 ft 422 kts 297°
2026-04-22 15:58 41.82974 0.77063 31955 ft 422 kts 298°
2026-04-22 15:58 41.85640 0.70049 31954 ft 422 kts 298°
2026-04-22 15:59 41.88307 0.63044 31951 ft 422 kts 298°
2026-04-22 15:59 41.90969 0.56030 31957 ft 422 kts 298°
2026-04-22 16:00 41.93609 0.49053 31956 ft 421 kts 298°
2026-04-22 16:00 41.96260 0.42030 31952 ft 422 kts 298°
2026-04-22 16:01 41.98907 0.35002 31951 ft 422 kts 298°
2026-04-22 16:01 42.01548 0.27975 31934 ft 421 kts 298°
2026-04-22 16:02 42.04186 0.20936 31937 ft 421 kts 298°
2026-04-22 16:02 42.06799 0.13950 31935 ft 421 kts 297°
2026-04-22 16:03 42.09426 0.06909 31932 ft 421 kts 297°
2026-04-22 16:03 42.11991 0.00013 31920 ft 421 kts 297°
2026-04-22 16:04 42.14614 -0.07049 31955 ft 422 kts 297°
2026-04-22 16:04 42.17185 -0.13994 31957 ft 422 kts 297°
2026-04-22 16:05 42.19754 -0.20949 31945 ft 427 kts 297°
2026-04-22 16:05 42.22376 -0.28070 31945 ft 422 kts 297°
2026-04-22 16:06 42.24982 -0.35166 31935 ft 421 kts 297°
2026-04-22 16:06 42.27580 -0.42254 31943 ft 421 kts 297°
2026-04-22 16:07 42.30157 -0.49303 31947 ft 421 kts 297°
2026-04-22 16:07 42.32748 -0.56406 31943 ft 421 kts 297°
2026-04-22 16:08 42.35324 -0.63487 31928 ft 410 kts 297°
2026-04-22 16:08 42.36554 -0.66876 31944 ft 393 kts 297°
2026-04-22 16:08 42.37734 -0.70133 31945 ft 381 kts 297°
2026-04-22 16:09 42.40044 -0.76507 31922 ft 380 kts 297°
2026-04-22 16:09 42.42367 -0.82928 31930 ft 380 kts 297°
2026-04-22 16:10 42.44683 -0.89351 31942 ft 380 kts 297°
2026-04-22 16:10 42.46995 -0.95785 31942 ft 380 kts 297°
2026-04-22 16:11 42.49304 -1.02225 31942 ft 380 kts 297°
2026-04-22 16:11 42.51595 -1.08624 31815 ft 380 kts 297°
2026-04-22 16:12 42.52744 -1.11841 31576 ft 378 kts 297°
2026-04-22 16:12 42.53888 -1.15042 31324 ft 377 kts 296°
2026-04-22 16:12 42.55033 -1.18253 31079 ft 377 kts 296°
2026-04-22 16:12 42.56172 -1.21450 30825 ft 377 kts 296°
2026-04-22 16:13 42.57311 -1.24650 30598 ft 376 kts 296°
2026-04-22 16:13 42.58444 -1.27837 30317 ft 375 kts 296°
2026-04-22 16:13 42.59574 -1.31021 29835 ft 374 kts 296°
2026-04-22 16:13 42.60686 -1.34157 29430 ft 372 kts 296°
2026-04-22 16:14 42.61804 -1.37312 29000 ft 370 kts 296°
2026-04-22 16:14 42.62914 -1.40446 28581 ft 367 kts 296°
2026-04-22 16:14 42.64017 -1.43564 28155 ft 365 kts 296°
2026-04-22 16:14 42.65111 -1.46661 27737 ft 363 kts 296°
2026-04-22 16:15 42.66201 -1.49748 27303 ft 361 kts 296°
2026-04-22 16:15 42.67280 -1.52805 26865 ft 357 kts 296°
2026-04-22 16:15 42.68341 -1.55823 26518 ft 351 kts 295°
2026-04-22 16:15 42.69535 -1.58720 25890 ft 356 kts 307°
2026-04-22 16:16 42.71152 -1.61216 25647 ft 355 kts 316°
2026-04-22 16:16 42.73126 -1.63201 25233 ft 354 kts 329°
2026-04-22 16:16 42.75403 -1.64478 24732 ft 356 kts 343°
2026-04-22 16:16 42.77864 -1.64904 24278 ft 359 kts 358°
2026-04-22 16:17 42.80339 -1.64433 23826 ft 362 kts 13°
2026-04-22 16:17 42.82678 -1.63169 23333 ft 362 kts 23°
2026-04-22 16:17 42.84923 -1.61597 22857 ft 363 kts 26°
2026-04-22 16:17 42.87120 -1.59891 22399 ft 363 kts 28°
2026-04-22 16:18 42.89263 -1.58160 21958 ft 362 kts 28°
2026-04-22 16:18 42.91424 -1.56406 21501 ft 361 kts 28°
2026-04-22 16:18 42.93585 -1.54668 21037 ft 360 kts 26°
2026-04-22 16:18 42.95750 -1.52948 20578 ft 359 kts 27°
2026-04-22 16:19 42.97909 -1.51251 20144 ft 356 kts 27°
2026-04-22 16:19 43.00052 -1.49579 19662 ft 355 kts 27°
2026-04-22 16:19 43.02195 -1.47912 19223 ft 354 kts 27°
2026-04-22 16:19 43.04403 -1.46487 18769 ft 349 kts 15°
2026-04-22 16:20 43.06735 -1.45756 18302 ft 341 kts
2026-04-22 16:20 43.09058 -1.45697 17826 ft 336 kts 353°
2026-04-22 16:20 43.11358 -1.45918 17550 ft 326 kts 349°
2026-04-22 16:20 43.13571 -1.46277 17364 ft 316 kts 348°
2026-04-22 16:21 43.15726 -1.46695 17009 ft 311 kts 347°
2026-04-22 16:21 43.17855 -1.47131 16603 ft 308 kts 347°
2026-04-22 16:21 43.19970 -1.47562 16193 ft 306 kts 347°
2026-04-22 16:21 43.22069 -1.47977 15774 ft 305 kts 348°
2026-04-22 16:22 43.26341 -1.48785 14621 ft 314 kts 348°
2026-04-22 16:22 43.28494 -1.49146 14062 ft 319 kts 353°
2026-04-22 16:22 43.30724 -1.49025 13507 ft 324 kts
2026-04-22 16:23 43.34959 -1.46901 12469 ft 320 kts 22°
2026-04-22 16:23 43.36967 -1.45673 11875 ft 313 kts 21°
2026-04-22 16:23 43.38758 -1.44072 11295 ft 305 kts 47°
2026-04-22 16:24 43.39722 -1.41565 10699 ft 295 kts 80°
2026-04-22 16:24 43.39734 -1.36013 9500 ft 309 kts 95°
2026-04-22 16:24 43.39649 -1.32862 8830 ft 344 kts 93°
2026-04-22 16:25 43.39661 -1.29616 8206 ft 340 kts 86°
2026-04-22 16:25 43.41959 -1.24854 7035 ft 285 kts 26°
2026-04-22 16:25 43.43814 -1.24421 6439 ft 263 kts 352°
2026-04-22 16:26 43.45543 -1.24933 5833 ft 249 kts 343°
2026-04-22 16:26 43.47078 -1.25793 5202 ft 228 kts 318°
2026-04-22 16:26 43.47841 -1.27550 4568 ft 211 kts 279°
2026-04-22 16:26 43.47637 -1.29468 3978 ft 199 kts 256°
2026-04-22 16:27 43.47281 -1.31245 3391 ft 192 kts 261°
2026-04-22 16:27 43.47069 -1.33039 2804 ft 186 kts 269°
2026-04-22 16:27 43.47016 -1.34777 2343 ft 177 kts 273°
2026-04-22 16:27 43.47004 -1.36400 2035 ft 159 kts 272°
2026-04-22 16:28 43.46991 -1.37836 1873 ft 142 kts 271°
2026-04-22 16:28 43.46975 -1.39195 1702 ft 146 kts 272°
2026-04-22 16:28 43.46958 -1.40612 1608 ft 151 kts 271°
2026-04-22 16:28 43.46942 -1.42066 1536 ft 152 kts 271°
2026-04-22 16:29 43.46927 -1.43521 1353 ft 152 kts 271°
2026-04-22 16:29 43.46913 -1.44950 1142 ft 151 kts 272°
2026-04-22 16:29 43.46899 -1.46390 934 ft 149 kts 269°
2026-04-22 16:29 43.46884 -1.47785 732 ft 145 kts 270°
2026-04-22 16:30 43.46875 -1.48700 594 ft 144 kts 271°
2026-04-22 16:30 43.46860 -1.50567 394 ft 144 kts 267°
2026-04-22 16:30 43.46849 -1.51908 265 ft 137 kts 268°
2026-04-22 16:30 43.46824 -1.53072 259 ft 77 kts 268°
2026-04-22 16:31 43.46814 -1.53452 262 ft 25 kts 266°
2026-04-22 16:31 43.46814 -1.53641 264 ft 6 kts 305°
2026-04-22 16:31 43.46828 -1.53638 263 ft 4 kts 47°
2026-04-22 16:31 43.46830 -1.53593 263 ft 8 kts 97°
2026-04-22 16:32 43.46829 -1.53477 263 ft 17 kts 89°